Stations météo

réclame
Mon MeteoGroup
Madrid/Getafe, Espagne (8224): Température de l'air & dewpoint: 11.08.2018 19:00:00 - 17.08.2018 19:00:00 (CEST)Madrid/Getafe, Espagne (8224): Vitesse du vent: 11.08.2018 19:00:00 - 17.08.2018 19:00:00 (CEST)Madrid/Getafe, Espagne (8224): Direction du vent: 11.08.2018 19:00:00 - 17.08.2018 19:00:00 (CEST)Madrid/Getafe, Espagne (8224): reduced air pressure: 11.08.2018 19:00:00 - 17.08.2018 19:00:00 (CEST)Madrid/Getafe, Espagne (8224): visibility: 11.08.2018 19:00:00 - 17.08.2018 19:00:00 (CEST)
Date & Time tt [°C] td [°C] ff [km/h] ff [knt] dd ppp [hPa] vv [km]
17.08.2018 19:00:00 - - - - - - -
17.08.2018 18:00:00 - - - - - - -
17.08.2018 17:00:00 30,8 14,4 9 5 N 1011,3 40
17.08.2018 16:00:00 - - - - - - -
17.08.2018 15:00:00 - - - - - - -
17.08.2018 14:00:00 28,6 15,5 4 2 SE 1014,0 40
17.08.2018 13:00:00 - - - - - - -
17.08.2018 12:00:00 - - - - - - -
17.08.2018 11:00:00 24,2 14,9 5 3 E 1015,7 40
17.08.2018 10:00:00 - - - - - - -
17.08.2018 09:00:00 - - - - - - -
17.08.2018 08:00:00 20,0 13,5 9 5 ENE 1016,0 40
17.08.2018 07:00:00 - - - - - - -
17.08.2018 06:00:00 - - - - - - -
17.08.2018 05:00:00 - - - - - - -
17.08.2018 04:00:00 - - - - - - -
17.08.2018 03:00:00 - - - - - - -
17.08.2018 02:00:00 - - - - - - -
17.08.2018 01:00:00 - - - - - - -
17.08.2018 00:00:00 - - - - - - -
16.08.2018 23:00:00 - - - - - - -
16.08.2018 22:00:00 - - - - - - -
16.08.2018 21:00:00 - - - - - - -
16.08.2018 20:00:00 24,8 16,0 11 6 SSW 1011,1 30
16.08.2018 19:00:00 - - - - - - -
16.08.2018 18:00:00 - - - - - - -
16.08.2018 17:00:00 31,6 14,3 13 7 ESE 1010,1 40
16.08.2018 16:00:00 - - - - - - -
16.08.2018 15:00:00 - - - - - - -
16.08.2018 14:00:00 30,0 13,7 15 8 ESE 1012,5 40
16.08.2018 13:00:00 - - - - - - -
16.08.2018 12:00:00 - - - - - - -
16.08.2018 11:00:00 26,0 13,5 13 7 SE 1014,0 40
16.08.2018 10:00:00 - - - - - - -
16.08.2018 09:00:00 - - - - - - -
16.08.2018 08:00:00 23,2 16,3 9 5 ENE 1013,0 40
16.08.2018 07:00:00 - - - - - - -
16.08.2018 06:00:00 - - - - - - -
16.08.2018 05:00:00 - - - - - - -
16.08.2018 04:00:00 - - - - - - -
16.08.2018 03:00:00 - - - - - - -
16.08.2018 02:00:00 - - - - - - -
16.08.2018 01:00:00 - - - - - - -
16.08.2018 00:00:00 - - - - - - -
15.08.2018 23:00:00 - - - - - - -
15.08.2018 22:00:00 - - - - - - -
15.08.2018 21:00:00 - - - - - - -
15.08.2018 20:00:00 33,8 12,2 8 4 WNW 1009,0 40
15.08.2018 19:00:00 - - - - - - -
15.08.2018 18:00:00 - - - - - - -
15.08.2018 17:00:00 33,4 13,5 15 8 SW 1010,1 40
15.08.2018 16:00:00 - - - - - - -
15.08.2018 15:00:00 - - - - - - -
15.08.2018 14:00:00 30,2 16,9 5 3 SSE 1013,2 40
15.08.2018 13:00:00 - - - - - - -
15.08.2018 12:00:00 - - - - - - -
15.08.2018 11:00:00 25,0 16,2 11 6 NE 1015,5 40
15.08.2018 10:00:00 - - - - - - -
15.08.2018 09:00:00 - - - - - - -
15.08.2018 08:00:00 20,6 11,5 13 7 NE 1016,6 30
15.08.2018 07:00:00 - - - - - - -
15.08.2018 06:00:00 - - - - - - -
15.08.2018 05:00:00 - - - - - - -
15.08.2018 04:00:00 - - - - - - -
15.08.2018 03:00:00 - - - - - - -
15.08.2018 02:00:00 - - - - - - -
15.08.2018 01:00:00 - - - - - - -
15.08.2018 00:00:00 - - - - - - -
14.08.2018 23:00:00 - - - - - - -
14.08.2018 22:00:00 - - - - - - -
14.08.2018 21:00:00 - - - - - - -
14.08.2018 20:00:00 32,6 11,7 4 2 S 1011,3 50
14.08.2018 19:00:00 - - - - - - -
14.08.2018 18:00:00 - - - - - - -
14.08.2018 17:00:00 32,4 8,6 9 5 NNW 1012,5 50
14.08.2018 16:00:00 - - - - - - -
14.08.2018 15:00:00 - - - - - - -
14.08.2018 14:00:00 31,0 9,3 9 5 NNE 1014,2 50
14.08.2018 13:00:00 - - - - - - -
14.08.2018 12:00:00 - - - - - - -
14.08.2018 11:00:00 24,4 13,0 16 9 NE 1016,2 50
14.08.2018 10:00:00 - - - - - - -
14.08.2018 09:00:00 - - - - - - -
14.08.2018 08:00:00 21,0 12,7 13 7 NNE 1015,9 50
14.08.2018 07:00:00 - - - - - - -
14.08.2018 06:00:00 - - - - - - -
14.08.2018 05:00:00 - - - - - - -
14.08.2018 04:00:00 - - - - - - -
14.08.2018 03:00:00 - - - - - - -
14.08.2018 02:00:00 - - - - - - -
14.08.2018 01:00:00 - - - - - - -
14.08.2018 00:00:00 - - - - - - -
13.08.2018 23:00:00 - - - - - - -
13.08.2018 22:00:00 - - - - - - -
13.08.2018 21:00:00 - - - - - - -
13.08.2018 20:00:00 32,6 6,0 21 11 NNW 1007,7 50
13.08.2018 19:00:00 - - - - - - -
13.08.2018 18:00:00 - - - - - - -
13.08.2018 17:00:00 33,0 7,1 15 8 WSW 1008,2 50
13.08.2018 16:00:00 - - - - - - -
13.08.2018 15:00:00 - - - - - - -
13.08.2018 14:00:00 30,2 9,7 15 8 SW 1010,5 40
13.08.2018 13:00:00 - - - - - - -
13.08.2018 12:00:00 - - - - - - -
13.08.2018 11:00:00 25,8 15,2 4 2 NE 1012,2 30
13.08.2018 10:00:00 - - - - - - -
13.08.2018 09:00:00 - - - - - - -
13.08.2018 08:00:00 21,2 15,1 9 5 E 1012,4 25
13.08.2018 07:00:00 - - - - - - -
13.08.2018 06:00:00 - - - - - - -
13.08.2018 05:00:00 - - - - - - -
13.08.2018 04:00:00 - - - - - - -
13.08.2018 03:00:00 - - - - - - -
13.08.2018 02:00:00 - - - - - - -
13.08.2018 01:00:00 - - - - - - -
13.08.2018 00:00:00 - - - - - - -
12.08.2018 23:00:00 - - - - - - -
12.08.2018 22:00:00 - - - - - - -
12.08.2018 21:00:00 - - - - - - -
12.08.2018 20:00:00 33,8 7,7 24 13 WSW 1007,7 30
12.08.2018 19:00:00 - - - - - - -
12.08.2018 18:00:00 - - - - - - -
12.08.2018 17:00:00 34,2 10,7 22 12 WSW 1008,6 30
12.08.2018 16:00:00 - - - - - - -
12.08.2018 15:00:00 - - - - - - -
12.08.2018 14:00:00 32,0 13,7 11 6 WSW 1011,8 30
12.08.2018 13:00:00 - - - - - - -
12.08.2018 12:00:00 - - - - - - -
12.08.2018 11:00:00 26,8 16,7 9 5 E 1014,6 30
12.08.2018 10:00:00 - - - - - - -
12.08.2018 09:00:00 - - - - - - -
12.08.2018 08:00:00 23,2 17,6 9 5 ENE 1015,7 40
12.08.2018 07:00:00 - - - - - - -
12.08.2018 06:00:00 - - - - - - -
12.08.2018 05:00:00 - - - - - - -
12.08.2018 04:00:00 - - - - - - -
12.08.2018 03:00:00 - - - - - - -
12.08.2018 02:00:00 - - - - - - -
12.08.2018 01:00:00 - - - - - - -
12.08.2018 00:00:00 - - - - - - -
11.08.2018 23:00:00 - - - - - - -
11.08.2018 22:00:00 - - - - - - -
11.08.2018 21:00:00 - - - - - - -
11.08.2018 20:00:00 33,6 9,6 13 7 WSW 1013,1 40
11.08.2018 19:00:00 - - - - - - -

tt = Température de l'air
td = dewpoint
ff = Vitesse du vent
dd = Direction du vent
ppp = reduced air pressure
vv = visibility

stations d'obs. à proximité